Location: Chisholm
(54.9102°N, 114.1701°W)
Time: 19:22:14
(UTC+00:00)

ISS - Pass Details

Date: 06 December 2021
Orbit: 413 x 422 km, 51.6° (Epoch: 28 January)

Event Time Altitude Azimuth Distance (km) Brightness Sun altitude
Rises 01:19:39 0° 275° (W) 2,389 1.4 -17.1°
Reaches altitude 10° 01:22:12 10° 256° (WSW) 1,517 0.4 -17.5°
Maximum altitude 01:24:36 18° 211° (SSW) 1,115 -1.1 -17.8°
Drops below altitude 10° 01:26:59 10° 167° (SSE) 1,507 -0.9 -18.2°
Enters shadow 01:27:58 - 157° (SSE) 1,813 -0.6 -18.3°
